Location: Bogis-Bossey
(46.3500°N, 6.1667°E)
Time: 17:01:13
(UTC+00:00)

USA 308 - Pass Details

Date: 17 August 2022
Orbit: 543 x 546 km, 54.0° (Epoch: 30 September)

Event Time Altitude Azimuth Distance (km) Brightness Sun altitude
Rises 20:11:13 0° 264° (W) 2,727 7.1 -14.4°
Reaches altitude 10° 20:13:34 10° 272° (W) 1,835 6.3 -14.7°
Maximum altitude 20:17:29 38° 342° (NNW) 854 4.3 -15.2°
Drops below altitude 10° 20:21:24 10° 52° (NE) 1,839 5.4 -15.7°
Sets 20:23:46 0° 60° (ENE) 2,734 6.2 -16.0°
Enters shadow 20:23:56 -1° 61° (ENE) 2,798 6.2 -16.1°
